ASTRA 1G
1 25071U 97076A   03023.00000000  .00000124  00000-0  10000-3 0  3885
2 25071   0.0122 319.8851 0002995  65.1991 116.0322  1.00273184 18878
INMARSAT 3-F5
1 25153U 98006B   03032.96781544  .00000131  00000-0  10000-3 0  8382
2 25153   0.4542 357.6448 0004393 320.8544 186.6275  1.00274033 18335
HOT BIRD 4
1 25237U 98013A   03013.80550721  .00000107  00000-0  10000-3 0  3250
2 25237   0.0242 116.4838 0007929 193.6371 105.7449  1.00276095 18185
NOAA 15
1 25338U 98030A   03033.93191209  .00000168  00000-0  91182-4 0  9938
2 25338  98.5503  56.5056 0010856   7.6198 352.5144 14.24236953245577
RESURS O1-N4
1 25394U 98043A   03033.96554825 +.00000104 +00000-0 +64201-4 0 04683
2 25394 098.6356 112.1823 0002043 130.6326 229.5030 14.23871365237317
TMSAT
1 25396U 98043C   03033.93173554 -.00000043 +00000-0 +00000-0 0 09140
2 25396 098.6294 111.3412 0003005 158.4695 201.6611 14.23506104237302
TECHSAT 1B
1 25397U 98043D   03033.94748080 +.00000063 +00000-0 +47221-4 0 01473
2 25397 098.6251 110.2598 0001475 152.5709 207.5548 14.22955884237271
ASTRA 2A
1 25462U 98050A   03023.69277567  .00000000  00000-0  10000-3 0  5291
2 25462   0.0332  23.2945 0014243 166.1651 210.9165  1.00270553 16187
EUTELSAT W2
1 25491U 98056A   03029.00266876  .00000099  00000-0  00000+0 0  5711
2 25491   0.0278 124.8124 0003697 176.6640 203.3209  1.00274433 15848
HOT BIRD 5
1 25495U 98057A   03031.82481701  .00000145  00000-0  00000+0 0  4963
2 25495   0.0130 168.2589 0004110 139.7195 152.6358  1.00273064 15842
SEDSAT 1
1 25509U 98061B   03033.91597178  .00000829  00000-0  15386-3 0  7703
2 25509  31.4280 241.5699 0357587 166.2349 194.8322 14.27408656223079
PAN SAT
1 25520U 98064B   03033.93490101 +.00002593 +00000-0 +12965-3 0 06416
2 25520 028.4595 327.9784 0005728 183.2277 176.8353 15.13795646235214
ISS (ZARYA)
1 25544U 98067A   03034.47418981  .00038516  00000-0  46715-3 0  6527
2 25544  51.6375 331.8520 0005689 107.8512  52.4725 15.60216281240141
ORSTED
1 25635U 99008B   03034.01538807  .00000838  00000-0  21932-3 0  8223
2 25635  96.4484  23.9712 0146398  18.9169 341.7385 14.44804730207697
SUNSAT
1 25636U 99008C   03034.53096062  .00000431  00000-0  12058-3 0  6612
2 25636  96.4514  23.0515 0150212  23.5861 337.2128 14.42936751207642
UOSAT 12
1 25693U 99021A   03034.51256246  .00000294  00000-0  61903-4 0  6734
2 25693  64.5584  56.8707 0018834 316.7996  43.1628 14.76368645204030
FENGYUN 1C
1 25730U 99025A   03033.98983449 -.00000058 +00000-0 -86515-5 0 07796
2 25730 098.6350 058.9750 0015173 049.4054 310.8437 14.11731256192433
ASTRA 1H
1 25785U 99033A   03023.00000000  .00000123  00000-0  10000-3 0  3690
2 25785   0.0122 319.8851 0002995  65.1991 116.0174  1.00273184 13230
TERRA
1 25994U 99068A   03034.27423991  .00000380  00000-0  94353-4 0  6624
2 25994  98.2003 110.7311 0001090  71.1585 288.9693 14.57112200166443
JAWSAT
1 26061U 00004A   03034.54812949  .00000454  00000-0  16915-3 0  7560
2 26061 100.2103  88.8287 0034784 322.5992  37.2769 14.37805483158374
OPAL
1 26063U 00004C   03033.66342777 +.00000111 +00000-0 +58963-4 0 07145
2 26063 100.2152 085.3564 0037163 332.1230 027.7953 14.35473854158118
ASUSAT
1 26065U 00004E   03034.24790192  .00000147  00000-0  71110-4 0  7249
2 26065 100.2149  86.1934 0037123 331.6518  28.2642 14.35501188158185
GOES 11
1 26352U 00022A   03033.27779084 -.00000046  00000-0  10000-3 0    36
2 26352   0.1014 105.2750 0004247 180.4569 193.3407  1.00263331 10070
EUTELSAT W4
1 26369U 00028A   03028.81856696  .00000150  00000-0  00000+0 0  3481
2 26369   0.0297  41.0424 0009627 313.4883 103.8214  1.00274845  9846
FENGYUN 2B
1 26382U 00032A   03033.80141014 -.00000336  00000-0  00000+0 0  7826
2 26382   0.6049 287.3229 0001862 245.7788 351.9024  1.00276011  9554
EUTELSAT W1
1 26487U 00052A   03032.84759476  .00000058  00000-0  10000-3 0  3500
2 26487   0.0132 253.0304 0004193 328.4501 225.2537  1.00272552  8853
ASTRA 2B
1 26494U 00054A   03023.00000000  .00000154  00000-0  00000+0 0  2523
2 26494   0.0178 354.5658 0005000 302.8402 212.7100  1.00276704  8652
NOAA 16
1 26536U 00055A   03034.55832330 -.00000048  00000-0 -19377-5 0  1933
2 26536  98.9002 342.9540 0010459 353.0099   7.0979 14.11892210122036
SAUDISAT 1A
1 26545U 00057A   03033.65539521 +.00001222 +00000-0 +18088-3 0 04089
2 26545 064.5591 080.8327 0053097 241.4752 118.1039 14.78936412126873
UNISAT
1 26547U 00057C   03033.64988826 +.00002080 +00000-0 +28709-3 0 04271
2 26547 064.5576 083.1448 0060354 243.7174 115.7744 14.79673628126835
TIUNGSAT 1
1 26548U 00057D   03033.56741671 +.00001618 +00000-0 +22217-3 0 04137
2 26548 064.5582 074.1702 0046387 240.4081 119.2397 14.81212148127009
SAUDISAT 1B
1 26549U 00057E   03034.22139165  .00001045  00000-0  16077-3 0  6820
2 26549  64.5544  83.1274 0057524 241.5026 118.0267 14.77876858126874
AMSAT OSCAR 40
1 26609U 00072B   03034.31137944 -.00000179  00000-0  10000-3 0  3091
2 26609   8.0492  66.9657 7939320 139.8206 319.3106  1.25596473 10397
GOES 12
1 26871U 01031A   03031.16216598 -.00000141  00000-0  10000-3 0  8006
2 26871   0.3724 276.8406 0003287 355.3269 175.6425  1.00363378  5655
PCSAT
1 26931U 01043C   03034.19862234  .00000161  00000-0  96042-4 0  3924
2 26931  67.0483 295.1841 0005081 262.9515  97.1008 14.29106567 70154
SAPPHIRE
1 26932U 01043D   03034.52847863  .00000083  00000-0  65047-4 0  3871
2 26932  67.0564 294.0435 0005506 239.6779 120.3783 14.29288165 70229
ENVISAT
1 27386U 02009A   03034.45526172  .00000168  00000-0  78595-4 0  9059
2 27386  98.5460 103.2226 0000929  95.9982 264.1308 14.32251589 48587
IDEFIX/ARIANE 42P
1 27422U 02021B   03033.90683668 +.00000174 +00000-0 +88093-4 0 02499
2 27422 098.6984 113.1799 0012357 191.9942 168.0944 14.27960191039225
FENGYUN 1D
1 27431U 02024B   03034.18698939 -.00000002  00000-0  23428-4 0  2065
2 27431  98.7711  83.5791 0015722 165.5598 194.6026 14.09176413 37207
NOAA 17
1 27453U 02032A   03033.95915472 +.00000212 +00000-0 +11310-3 0 02930
2 27453 098.7607 105.2517 0012526 044.9063 315.3126 14.23282868031743
HOT BIRD 6
1 27499U 02038A   03013.80550721  .00000106  00000-0  10000-3 0   665
2 27499   0.0928  32.8693 0008090 290.3889  92.5421  1.00271722  1476
RUBIN 2
1 27605U 02058A   03034.08331465 -.00000010  00000-0  20090-4 0   454
2 27605  64.5552 244.2642 0030700 121.7162 238.6954 14.71397369  6534
